Location: Ostrava
(49.8330°N, 18.2830°E)
Time: 03:22:48
(UTC+02:00)

Cosmos 1400 Rocket - Visible Passes

Search period start: 23 April 2018 00:00
Search period end: 03 May 2018 00:00
Orbit: 522 x 569 km, 81.2° (Epoch: 22 April)

Date Brightness Start Highest point End Pass type
(mag) Time Alt. Az. Time Alt. Az. Time Alt. Az.
26 Apr 3.5 04:53:34 10° S 04:57:26 57° E 05:01:24 10° NNE visible
27 Apr 3.4 04:47:54 10° S 04:51:48 61° E 04:55:48 10° NNE visible
28 Apr 3.2 04:42:14 10° S 04:46:10 66° E 04:50:12 10° NNE visible
29 Apr 3.1 04:36:35 10° S 04:40:32 71° E 04:44:35 10° NNE visible
30 Apr 3.0 04:30:56 10° S 04:34:55 76° E 04:38:59 10° NNE visible
01 May 2.9 04:25:17 10° S 04:29:17 81° E 04:33:22 10° NNE visible
02 May 2.9 04:19:38 10° S 04:23:39 87° E 04:27:45 10° NNE visible
